VK6WB Weather Reports


time (UTC)temp
C
wind
direction
speed
KPH
gust
KPH
rain 1hr
cm
rain 24hr
cm
rain mn
cm
humidity
%
barometer
mb
20190422002006 16 152 0.0 11.3 0.00 0.00 0.00 50 1032.8
20190422001004 15 161 0.0 3.2 0.00 0.00 0.00 50 1032.8
20190422000005 15 165 0.0 1.6 0.00 0.00 0.00 51 1032.7
20190421235004 15 168 0.0 3.2 0.00 0.00 0.00 52 1032.7
20190421234003 15 176 0.0 1.6 0.00 0.00 0.00 52 1032.7
20190421233005 14 171 0.0 1.6 0.00 0.00 0.00 53 1032.6
20190421232005 13 155 0.0 1.6 0.00 0.00 0.00 56 1032.5
20190421231003 12 169 0.0 1.6 0.00 0.00 0.00 61 1032.5
20190421230005 10 181 0.0 1.6 0.00 0.00 0.00 70 1032.3
20190421225004 10 0 0.0 0.0 0.00 0.00 0.00 71 1032.2
20190421224004 10 181 0.0 1.6 0.00 0.00 0.00 70 1032.1
20190421223005 10 135 0.0 1.6 0.00 0.00 0.00 69 1032.2
20190421222004 10 158 0.0 1.6 0.00 0.00 0.00 68 1032.1
20190421221004 10 171 0.0 1.6 0.00 0.00 0.00 67 1032.1
20190421220004 11 0 0.0 0.0 0.00 0.00 0.00 63 1031.9
20190421215004 11 183 0.0 3.2 0.00 0.00 0.00 61 1031.9
20190421214003 11 183 0.0 3.2 0.00 0.00 0.00 60 1031.7
20190421213005 11 184 0.0 1.6 0.00 0.00 0.00 59 1031.7
20190421212003 11 181 0.0 3.2 0.00 0.00 0.00 60 1031.9
20190421211004 11 182 0.0 3.2 0.00 0.00 0.00 62 1031.9
20190421210005 11 184 0.0 1.6 0.00 0.00 0.00 64 1031.9
20190421205003 11 193 0.0 3.2 0.00 0.00 0.00 64 1031.9
20190421204004 11 187 0.0 3.2 0.00 0.00 0.00 64 1031.8
20190421203005 11 196 0.0 3.2 0.00 0.00 0.00 66 1031.8
20190421202004 11 192 0.0 3.2 0.00 0.00 0.00 66 1031.8
20190421201004 11 188 0.0 3.2 0.00 0.00 0.00 67 1032.1
20190421200004 11 194 0.0 1.6 0.00 0.00 0.00 68 1032.1
20190421195004 11 199 0.0 3.2 0.00 0.00 0.00 68 1032.1
20190421194004 11 203 0.0 3.2 0.00 0.00 0.00 68 1032.1
20190421193005 11 181 0.0 1.6 0.00 0.00 0.00 67 1032.1
20190421192004 12 191 0.0 3.2 0.00 0.00 0.00 63 1032.1
20190421191003 12 200 0.0 1.6 0.00 0.00 0.00 62 1032.0
20190421190005 12 219 0.0 3.2 0.00 0.00 0.00 62 1032.1
20190421185003 12 225 0.0 3.2 0.00 0.00 0.00 62 1032.0
20190421184005 12 211 0.0 1.6 0.00 0.00 0.00 62 1031.9
20190421183005 12 211 0.0 1.6 0.00 0.00 0.00 62 1031.9
20190421182004 12 221 0.0 1.6 0.00 0.00 0.00 62 1031.9
20190421181004 12 225 0.0 1.6 0.00 0.00 0.00 62 1031.9
20190421180005 12 225 0.0 1.6 0.00 0.00 0.00 62 1032.1
20190421175004 12 225 0.0 3.2 0.00 0.00 0.00 63 1032.1
20190421174003 12 225 0.0 1.6 0.00 0.00 0.00 67 1032.2
20190421173005 12 0 0.0 0.0 0.00 0.00 0.00 72 1032.3
20190421172006 12 0 0.0 0.0 0.00 0.00 0.00 73 1032.2
20190421171004 12 0 0.0 0.0 0.00 0.00 0.00 73 1032.1
20190421170005 12 225 0.0 1.6 0.00 0.00 0.00 73 1032.1
20190421165003 12 225 0.0 1.6 0.00 0.00 0.00 70 1032.2
20190421164004 12 0 0.0 0.0 0.00 0.00 0.00 68 1032.2
20190421163004 12 0 0.0 0.0 0.00 0.00 0.00 68 1032.2
20190421162004 12 225 0.0 1.6 0.00 0.00 0.00 76 1032.1
20190421161004 12 245 0.0 1.6 0.00 0.00 0.00 83 1032.1
20190421160006 12 252 0.0 1.6 0.00 0.00 0.00 86 1032.2
20190421155004 12 228 0.0 1.6 0.00 0.00 0.00 89 1032.2
20190421154004 13 247 0.0 1.6 0.00 0.00 0.00 92 1032.3
20190421153004 12 270 0.0 1.6 0.00 0.00 0.00 96 1032.3
20190421152004 13 270 0.0 1.6 0.00 0.00 0.00 98 1032.6
20190421151004 13 270 0.0 1.6 0.00 0.00 0.00 96 1032.5
20190421150005 13 270 0.0 1.6 0.00 0.00 0.00 96 1032.5
20190421145004 13 260 0.0 1.6 0.00 0.00 0.00 100 1032.5
20190421144003 13 264 0.0 1.6 0.00 0.00 0.00 100 1032.7
20190421143005 13 263 0.0 1.6 0.00 0.00 0.00 98 1032.7
20190421142003 13 239 0.0 1.6 0.00 0.00 0.00 97 1032.7
20190421141004 13 262 0.0 1.6 0.00 0.00 0.00 96 1032.7
20190421140004 13 263 0.0 1.6 0.00 0.00 0.00 95 1032.8
20190421135004 14 262 0.0 1.6 0.00 0.00 0.00 95 1032.8
20190421134004 14 276 0.0 3.2 0.00 0.00 0.00 94 1032.8
20190421133005 14 287 0.0 3.2 0.00 0.00 0.00 93 1032.9
20190421132004 14 278 0.0 3.2 0.00 0.00 0.00 92 1032.9
20190421131004 14 287 0.0 1.6 0.00 0.00 0.00 92 1032.8
20190421130005 15 278 0.0 3.2 0.00 0.00 0.00 90 1032.8
20190421125004 15 291 0.0 3.2 0.00 0.00 0.00 90 1032.8
20190421124004 15 276 0.0 1.6 0.00 0.00 0.00 88 1032.8
20190421123005 15 306 0.0 6.4 0.00 0.00 0.00 87 1032.8
20190421122004 15 270 4.8 8.0 0.00 0.00 0.00 87 1032.9
20190421121004 15 282 0.0 6.4 0.00 0.00 0.00 87 1032.9
20190421120004 15 288 3.2 8.0 0.00 0.00 0.00 85 1032.9
20190421115004 15 300 3.2 9.7 0.00 0.00 0.00 84 1032.9
20190421114004 16 306 0.0 6.4 0.00 0.00 0.00 82 1033.2
20190421113004 16 282 0.0 12.9 0.00 0.00 0.00 81 1033.2
20190421112004 16 307 6.4 12.9 0.00 0.00 0.00 80 1033.3
20190421111004 16 288 0.0 4.8 0.00 0.00 0.00 79 1033.3
20190421110005 16 295 6.4 12.9 0.00 0.00 0.00 79 1033.1
20190421105004 16 306 0.0 3.2 0.00 0.00 0.00 79 1033.1
20190421104003 16 305 0.0 3.2 0.00 0.00 0.00 77 1033.0
20190421103005 17 305 0.0 3.2 0.00 0.00 0.00 75 1032.8
20190421102004 17 305 0.0 11.3 0.00 0.00 0.00 73 1032.8
20190421101004 17 298 0.0 3.2 0.00 0.00 0.00 69 1032.7
20190421100005 17 312 3.2 12.9 0.00 0.00 0.00 65 1032.8
20190421095004 18 309 0.0 11.3 0.00 0.00 0.00 63 1032.8
20190421094004 18 317 0.0 11.3 0.00 0.00 0.00 61 1032.8
20190421093005 19 329 4.8 12.9 0.00 0.00 0.00 58 1032.7
20190421092004 19 309 6.4 16.1 0.00 0.00 0.00 55 1032.8
20190421091003 20 313 6.4 14.5 0.00 0.00 0.00 54 1032.7
20190421090007 20 335 9.7 14.5 0.00 0.00 0.00 55 1032.5
20190421085004 20 322 6.4 12.9 0.00 0.00 0.00 55 1032.5
20190421084004 20 312 9.7 17.7 0.00 0.00 0.00 52 1032.5
20190421083004 20 314 4.8 19.3 0.00 0.00 0.00 52 1032.6
20190421082003 21 339 11.3 19.3 0.00 0.00 0.00 51 1032.7
20190421081004 21 308 6.4 14.5 0.00 0.00 0.00 48 1032.8
20190421080005 23 16 0.0 11.3 0.00 0.00 0.00 43 1032.6
20190421075004 23 196 0.0 11.3 0.00 0.00 0.00 30 1032.7
20190421073005 23 182 3.2 8.0 0.00 0.00 0.00 30 1032.7
20190421072005 23 204 0.0 4.8 0.00 0.00 0.00 30 1032.9
20190421071003 23 136 0.0 9.7 0.00 0.00 0.00 29 1033.0
20190421070005 23 163 0.0 8.0 0.00 0.00 0.00 31 1033.1
20190421065004 22 221 0.0 12.9 0.00 0.00 0.00 31 1033.1
20190421064004 22 235 6.4 12.9 0.00 0.00 0.00 30 1033.0
20190421063006 22 220 0.0 12.9 0.00 0.00 0.00 31 1033.0
20190421062004 22 212 0.0 4.8 0.00 0.00 0.00 32 1033.2
20190421061004 23 192 0.0 11.3 0.00 0.00 0.00 34 1033.2
20190421060005 22 175 4.8 16.1 0.00 0.00 0.00 34 1033.4
20190421055004 22 174 0.0 8.0 0.00 0.00 0.00 36 1033.4
20190421054004 22 130 0.0 12.9 0.00 0.00 0.00 35 1033.5
20190421053005 22 183 3.2 12.9 0.00 0.00 0.00 37 1033.7
20190421052006 22 195 0.0 12.9 0.00 0.00 0.00 36 1033.9
20190421051004 22 124 0.0 9.7 0.00 0.00 0.00 37 1034.1
20190421050005 22 151 0.0 3.2 0.00 0.00 0.00 38 1034.3
20190421045003 21 210 0.0 14.5 0.00 0.00 0.00 39 1034.6
20190421044003 21 204 0.0 3.2 0.00 0.00 0.00 40 1034.6
20190421043005 21 202 0.0 3.2 0.00 0.00 0.00 41 1034.8
20190421042004 21 274 0.0 9.7 0.00 0.00 0.00 41 1035.0
20190421041004 20 222 1.6 16.1 0.00 0.00 0.00 43 1035.3
20190421040004 20 181 4.8 14.5 0.00 0.00 0.00 44 1035.3
20190421035004 20 204 0.0 3.2 0.00 0.00 0.00 44 1035.5
20190421034004 20 216 0.0 9.7 0.00 0.00 0.00 45 1035.9
20190421033005 20 225 0.0 3.2 0.00 0.00 0.00 46 1035.9
20190421032004 19 223 0.0 3.2 0.00 0.00 0.00 49 1035.9
20190421031003 19 259 0.0 3.2 0.00 0.00 0.00 49 1036.1
20190421030005 20 185 0.0 6.4 0.00 0.00 0.00 48 1036.3
20190421025004 19 203 3.2 12.9 0.00 0.00 0.00 49 1036.4
20190421024004 18 205 0.0 12.9 0.00 0.00 0.00 51 1036.4
20190421023005 18 181 6.4 12.9 0.00 0.00 0.00 53 1036.5
20190421022004 18 171 11.3 17.7 0.00 0.00 0.00 53 1036.5
20190421021004 17 189 0.0 3.2 0.00 0.00 0.00 57 1036.6
20190421020012 17 188 0.0 3.2 0.00 0.00 0.00 57 1036.7
20190421015003 17 166 0.0 12.9 0.00 0.00 0.00 61 1036.7
20190421014004 16 171 4.8 8.0 0.00 0.00 0.00 64 1036.7
20190421013005 15 185 0.0 3.2 0.00 0.00 0.00 67 1036.8
20190421012004 15 178 0.0 3.2 0.00 0.00 0.00 70 1037.0
20190421011004 14 187 0.0 9.7 0.00 0.00 0.00 73 1036.8
20190421010006 13 170 4.8 11.3 0.00 0.00 0.00 79 1036.9
20190421005003 13 147 0.0 9.7 0.00 0.00 0.00 83 1037.0
20190421004004 12 139 3.2 9.7 0.00 0.00 0.00 82 1037.0
20190421003004 12 164 0.0 8.0 0.00 0.00 0.00 81 1037.1